Regional Weather Roundup
Issued by NWS

Home | Current Version | Previous Version | Graphics & Text | Print | Product List | Glossary Off
Versions: 1 2 3 4 5 6 7 8 9 10 11 12 13 14 15 16 17 18 19 20 21 22 23 24 25 26 27 28 29 30 31 32 33 34 35 36 37 38 39 40 41 42 43 44 45 46 47 48 49 50

000
ASUS43 KMPX 101010
RWRMN
WEATHER ROUNDUP FOR MINNESOTA
NATIONAL WEATHER SERVICE TWIN CITIES/CHANHASSEN MN
400 AM CST SAT DEC 10 2016


NOTE: "FAIR" INDICATES FEW OR NO CLOUDS BELOW 12,000 FEET WITH NO
SIGNIFICANT WEATHER AND/OR OBSTRUCTIONS TO VISIBILITY. N/A MEANS
CURRENT SKY AND/OR WEATHER CONDITIONS ARE NOT AVAILABLE.

MNZ060>063-068>070-101100-
   Twin Cities Metro

CITY           SKY/WX    TMP DP  RH WIND       PRES   REMARKS
TWIN CITIES    CLEAR      5  -1  76 NW7       30.51F WCI  -7
ST PAUL        CLEAR      6   1  80 NW10      30.53S WCI  -9
CRYSTAL        CLEAR      4  -2  76 W6        30.50F WCI  -7
BLAINE         CLEAR      5   1  85 W5        30.49S WCI  -4
LAKEVILLE      CLEAR      1   0  92 W5        30.49F WCI  -8
EDEN PRAIRIE   CLEAR      5  -1  76 W5        30.49F WCI  -4
SOUTH ST PAUL  CLEAR      7   1  75 W5        30.51F WCI  -2
LAKE ELMO      FAIR       9   1  72 W7        30.51R WCI  -3
$$
MNZ001>005-007-008-013>017-022>024-027-028-101100-
   Northwest Minnesota

CITY           SKY/WX    TMP DP  RH WIND       PRES   REMARKS
BEMIDJI        CLOUDY   -11 -15  85 W5        30.44F WCI -23
HALLOCK        CLOUDY    -9 -15  77 CALM      30.53S
ROSEAU         CLOUDY    -9 -15  77 W7        30.49S WCI -24
WARROAD        CLOUDY   -11 -17  77 W3        30.47S
THIEF RVR FALL FLURRIES  -8 -12  83 NW5       30.50F WCI -19
CROOKSTON      CLOUDY    -2  -8  78 NW7       30.54R WCI -16
FOSSTON        FLURRIES -11 -15  84 CALM      30.46F
DETROIT LAKES    N/A     -9 -13  84 CALM      30.47F FOG
MOORHEAD       CLOUDY    -8 -11  84 CALM      30.53S
PARK RAPIDS    CLOUDY   -11 -17  75 W5        30.44S WCI -23
$$
MNZ006-009>011-018-025>026-101100-
   North Central Minnesota

CITY           SKY/WX    TMP DP  RH WIND       PRES   REMARKS
BAUDETTE       CLOUDY   -10 -14  82 W3        30.44S
FLAG ISLAND    CLOUDY    -6  -9  84 W10       30.45S WCI -23
INTL FALLS     CLEAR     -6 -11  79 W8        30.43S WCI -21
WASKISH        CLEAR     -2  -6  84 NW7       30.45S WCI -16
BIG FORK       CLOUDY    -2  -8  78 CALM      30.42F
LONGVILLE      CLOUDY     0  -6  78 CALM      30.44F
GRAND RAPIDS   FLURRIES   1  -5  75 NW5       30.45S WCI  -9
CRANE LAKE     FLURRIES  -8  -9  92 CALM      30.45S
ORR            CLOUDY    -6  -9  84 CALM      30.39F
COOK           CLOUDY    -2  -8  78 W6        30.42S WCI -14
$$
MNZ012-019>021-037-101100-
   Northeast Minnesota

CITY           SKY/WX    TMP DP  RH WIND       PRES   REMARKS
DULUTH         CLOUDY     4  -4  69 NW9       30.40S WCI -10
ELY            CLEAR     -6  -9  84 W5        30.39S WCI -17
HIBBING        CLOUDY    -1  -5  82 NW8       30.41F WCI -15
EVELETH        PTCLDY     0  -6  76 NW8       30.42F WCI -14
DULUTH HARBOR  CLOUDY    10   1  67 CALM      30.49S
TWO HARBORS    CLEAR      1  -6  71 NW3       30.41S
SILVER BAY     CLEAR      1  -4  78 CALM      30.40S
GRAND MARAIS     N/A     11   1  64 VRB6      30.43R WCI   1
G MARAIS ARPRT FLURRIES   1  -6  71 CALM      30.29R
$$
MNZ029>031-032-039>041-046>048-054>057-064-101100-
   West Central Minnesota

CITY           SKY/WX    TMP DP  RH WIND       PRES   REMARKS
FERGUS FALLS   PTCLDY   -13 -18  77 CALM      30.56S
WHEATON        CLOUDY    -6 -11  77 NW5       30.54S WCI -17
MORRIS         CLEAR     -8 -11  84 NW5       30.50S WCI -19
ALEXANDRIA     CLOUDY    -5 -10  79 W3        30.46F
ELBOW LAKE     FAIR     -10 -14  82 NW5       30.50R WCI -22
WADENA         CLOUDY    -6  -9  84 CALM      30.45F
GLENWOOD       CLOUDY    -8 -11  84 W3        30.47S
APPLETON       CLEAR     -2  -8  78 N3        30.52F
BENSON         CLOUDY    -6  -9  84 N5        30.50S WCI -17
ORTONVILLE     CLOUDY    -6 -11  77 CALM      30.52R
MADISON        CLOUDY     0  -6  78 N6        30.52F WCI -12
WILLMAR        FAIR      -2  -6  84 CALM      30.50S
$$
MNZ033>034-036-042>043-049>051-058-059-101100-
   Central Minnesota

CITY           SKY/WX    TMP DP  RH WIND       PRES   REMARKS
ST CLOUD       CLEAR      0  -4  83 W7        30.49F WCI -13
PAYNESVILLE    CLEAR     -3  -5  87 CALM      30.48F
AITKIN         MIX PCPN   7  -2  66 N5        30.43F WCI  -2
PINE RIVER     CLOUDY     1  -4  78 NW3       30.47S
BRAINERD       CLOUDY     2  -4  76 NW5       30.46S WCI  -8
LONG PRAIRIE   MOCLDY    -6  -9  84 CALM      30.46F
LITTLE FALLS   CLEAR      0  -6  78 CALM      30.49S
LITCHFIELD     CLEAR      1  -2  85 NW5       30.49F WCI  -8
BUFFALO        CLEAR      3  -1  82 W5        30.51F WCI  -6
MAPLE LAKE     CLEAR      2  -1  88 NW3       30.49F
HUTCHINSON     CLOUDY     2  -2  83 NW8       30.49F WCI -11
$$
MNZ037-044-045-052-053-101100-
   East Central Minnesota

CITY           SKY/WX    TMP DP  RH WIND       PRES   REMARKS
PRINCETON      CLEAR      1  -2  85 CALM      30.48F
MORA           CLOUDY     7   0  72 NW6       30.48S WCI  -3
CAMBRIDGE      CLEAR      7  -2  66 W3        30.47S
RUSH CITY      CLOUDY     9   1  72 W6        30.48S WCI  -1
MOOSE LAKE     CLOUDY     7  -2  66 NW8       30.44S WCI  -6
HINCKLEY       CLOUDY    10   1  67 NW5       30.45F WCI   2
CLOQUET        FLURRIES   5  -2  72 NW7       30.42R WCI  -7
MCGREGOR       CLOUDY     5   0  78 NW8       30.45S WCI  -8
$$
MNZ071>073-080-081-089-090-097-098-101100-
   Southwest Minnesota

CITY           SKY/WX    TMP DP  RH WIND       PRES   REMARKS
MONTEVIDEO     CLEAR     -2  -8  78 CALM      30.54R
GRANITE FALLS  CLEAR      2  -2  83 NW5       30.53S WCI  -8
CANBY          MOCLDY     1  -3  83 CALM      30.52S
MARSHALL       CLOUDY     2  -2  83 N6        30.50F WCI  -9
REDWOOD FALLS  CLEAR      2  -3  80 N5        30.50F WCI  -8
OLIVIA         CLEAR      0  -4  85 NW3       30.49F
PIPESTONE      CLOUDY     7   1  78 E3        30.42F
WINDOM         CLOUDY     7   1  78 MISG      30.47R
WORTHINGTON    FLURRIES   6   2  83 NE7       30.45F WCI  -6
JACKSON        CLOUDY     7   1  78 N5        30.47R WCI  -2
TRACY          CLOUDY     5   2  87 N5        30.48S WCI  -4
SLAYTON        CLOUDY     4   1  86 N6        30.46R WCI  -6
$$
MNZ065>067-074>077-082>085-091>093-101100-
   South Central Minnesota

CITY           SKY/WX    TMP DP  RH WIND       PRES   REMARKS
MANKATO        CLEAR      4   0  83 NW7       30.50F WCI  -8
NEW ULM          N/A      1  -2  85 N6        30.50F WCI -10
ST JAMES       PTCLDY     7   1  78 N5        30.51S WCI  -2
FAIRMONT       FLURRIES   7   2  80 N5        30.50S WCI  -2
GLENCOE        CLEAR      4   1  88 W5        30.49F WCI  -5
FARIBAULT      PTCLDY     5   0  78 NW5       30.49F WCI  -4
OWATONNA       PTCLDY     5   0  78 NW7       30.48F WCI  -7
WASECA         PTCLDY     5   0  78 NW3       30.50S
ALBERT LEA     CLOUDY    10   7  85 NW5       30.47S WCI   2
$$
MNZ078>079-086>088-094>096-101100-
   Southeast Minnesota

CITY           SKY/WX    TMP DP  RH WIND       PRES   REMARKS
ROCHESTER      CLOUDY     6   3  87 NW10      30.45F WCI  -9
RED WING       CLOUDY    10   3  72 W9        30.50S WCI  -2
STANTON        CLEAR      5   0  77 NW5       30.49F WCI  -4
DODGE CENTER   MOCLDY     5   1  85 NW6       30.45F WCI  -6
WINONA         PTCLDY    10   5  79 NW6       30.53R WCI   1
AUSTIN         FLURRIES   9   5  85 NW8       30.46S WCI  -4
PRESTON        LGT SNOW   8   4  84 N5        30.46F WCI  -1
$$
ABBREVIATIONS USED IN REMARKS
   TC - TEMPERATURES IN CELSIUS
  WCI - WIND CHILL INDEX
   HX - HEAT INDEX
  VSB - VISIBILITY
$$




USA.gov is the U.S. government's official web portal to all federal, state and local government web resources and services.